Regional Weather Roundup
Issued by NWS

Home | Current Version | Previous Version | Graphics & Text | Print | Product List | Glossary On
Versions: 1 2 3 4 5 6 7 8 9 10 11 12 13 14 15 16 17 18 19 20 21 22 23 24 25 26 27 28 29 30 31 32 33 34 35 36 37 38 39 40 41 42 43 44 45 46 47 48 49 50
000
ASUS43 KLOT 201706
RWRIL

ILLINOIS REGIONAL WEATHER ROUNDUP
NATIONAL WEATHER SERVICE CHICAGO/ROMEOVILLE IL
1200 PM CDT SAT SEP 20 2014

NOTE: "FAIR" INDICATES FEW OR NO CLOUDS BELOW 12,000 FEET WITH NO
SIGNIFICANT WEATHER AND/OR OBSTRUCTIONS TO VISIBILITY.

* THESE STATIONS ARE NOT UNDER NWS QUALITY CONTROL. THEY ALSO MAY NOT
  REPORT WEATHER SUCH AS PRECIPITATION OR FOG.

ILZ001-002-007-009-015-016-024-201800-
NORTHWEST ILLINOIS

CITY           SKY/WX    TMP DP  RH WIND       PRES   REMARKS
MOLINE         CLOUDY    73  65  75 SW8       29.88R
STERLING*      PTSUNNY   75  66  73 W13       29.88S
SAVANNA*       PTSUNNY   75  64  67 SW7       29.88R
$$

ILZ003-004-008-010-011-017-018-201800-
NORTH CENTRAL ILLINOIS

CITY           SKY/WX    TMP DP  RH WIND       PRES   REMARKS
ROCKFORD       PTSUNNY   73  63  70 SW13G22   29.87R
FREEPORT*      PTSUNNY   73  66  78 SW15G22   29.89R
ROCHELLE*      PTSUNNY   72  63  73 SW9       29.88R
DE KALB*       PTSUNNY   71  63  76 SW13      29.88R
PERU*          CLOUDY    75  65  71 W12       29.89R
$$

ILZ005-006-012>014-019>023-201800-
NORTHEAST ILLINOIS

CITY           SKY/WX    TMP DP  RH WIND       PRES   REMARKS
CHICAGO-OHARE  PTSUNNY   77  64  64 SW14G20   29.84F
CHICAGO-MIDWAY PTSUNNY   78  66  66 SW14      29.85F HX  80
AURORA         PTSUNNY   75  63  66 SW10      29.86F
LANSING*       MOSUNNY   77  65  67 SW16G25   29.88S
JOLIET*        MOSUNNY   75  63  66 SW9       29.88F
WAUKEGAN       PTSUNNY   73  62  68 SW17      29.82S
DUPAGE AIRPORT MOSUNNY   78  64  61 SW18      29.85F HX  80
KANKAKEE*      MOSUNNY   78  66  67 S20G26    29.90S HX  80
WHEELING       PTSUNNY   75  63  66 SW13      29.85F
MORRIS*        MOSUNNY   79  67  66 SW14      29.87F HX  81
ROMEOVILLE*    MOSUNNY   74  63  67 SW12G20   29.87S
NORTHERLY ISL    N/A     75  62  64 SW13        N/A
$$

LMZ740>746-201800-
SOUTHERN LAKE MICHIGAN

STATION/POSITION SKY/WX   TEMP    WIND        PRES    VSBY  WAVE
                          AIR SEA DIR/SP/G                  HT/PER
                          (F)     (DEG/KT/KT) (MB)    (MI)  (FT/S)
SOUTHERN BUOY              64 63  200/ 16/ 17 1009.5F         4/ 6
WAUKEGAN HARBOR            72     240/ 15/ 19   N/A
HARRISON CRIB              71     210/ 21/ 24   N/A
BURNHAM HARBOR             76     210/  5/ 14   N/A
CALUMET HARBOR             74     210/ 11/ 16 1010.0S
MICHIGAN CITY              73     180/ 18/ 23   N/A
MICHIGAN CITY 6N           71 65  210/ 16/ 21   N/A           3/ 4
ST. JOSEPH                 70 65  210/ 10/ 16   N/A           4/ 5
$$

ILZ025>027-034>036-040-047-049-050-058-095>099-201800-
WEST-CENTRAL ILLINOIS

CITY           SKY/WX    TMP DP  RH WIND       PRES   REMARKS
QUINCY         CLOUDY    77  68  73 SW14G23   29.94F
GALESBURG*     PTSUNNY   77  69  75 W17       29.92R
MACOMB*        CLOUDY    76  67  72 SW14G23   29.90F
JACKSONVILLE*  MOSUNNY   82  69  66 SW17G23   29.95F HX  85
PITTSFIELD*    PTSUNNY   79  68  70 SW13G20   29.96F HX  81
$$

ILZ028>032-037-038-041>044-048-051>054-059>061-201800-
CENTRAL ILLINOIS

CITY           SKY/WX    TMP DP  RH WIND       PRES   REMARKS
PONTIAC        PTSUNNY   79  66  65 S17G24    29.88S HX  81
DECATUR        PTSUNNY   79  67  66 SW14      29.95F HX  81
PEORIA         CLOUDY    76  66  71 SW14      29.89F
LACON*         CLOUDY    73  65  76 S12       29.87S
LINCOLN*       PTSUNNY   82  67  61 SW6       29.90F HX  84
SPRINGFIELD    MOSUNNY   80  68  66 SW14G24   29.95F HX  83
TAYLORVILLE    MOSUNNY   81  68  65 SW14G21   29.96F HX  83
$$

ILZ033-039-045-046-055>057-062-063-201800-
EAST-CENTRAL ILLINOIS

CITY           SKY/WX    TMP DP  RH WIND       PRES   REMARKS
CHAMPAIGN      PTSUNNY   79  66  64 SW13G23   29.96F HX  81
DANVILLE*      CLOUDY    77  64  63 S16G22    29.93F
RANTOUL*       CLOUDY    82  63  53 SW12G22   29.95F HX  83
MATTOON        PTSUNNY   76  66  71 S12       29.99F
PARIS*         PTSUNNY   79  66  63 SW15      29.99F HX  81
$$

ILZ079-100>102-201800-
SOUTHWEST ILLINOIS

CITY           SKY/WX    TMP DP  RH WIND       PRES   REMARKS
ALTON          SUNNY     81  68  65 SW12G17   30.01F HX  83
BELLEVILLE     MOSUNNY   79  70  72 VRB3      30.01F HX  82
CAHOKIA*       MOSUNNY   83  69  62 SW10      30.01F HX  86
SPARTA*        PTSUNNY   83  69  62 SW10      30.04F HX  86
$$

ILZ064>066-069>071-074>076-080>082-084>086-088>090-092>094-201800-
SOUTH-CENTRAL ILLINOIS

CITY           SKY/WX    TMP DP  RH WIND       PRES   REMARKS
CARBONDALE     PTSUNNY   81  68  64 SW13      30.04F HX  84
CAIRO*         MOSUNNY   84  70  63 S7        30.07S HX  89
EFFINGHAM*     MOSUNNY   79  64  59 SW9G18    30.02F HX  80
MARION         MOSUNNY   84  70  61 S14       30.06F HX  88
MT. VERNON     CLOUDY    79  68  69 SW9       30.05F HX  81
CENTRALIA*     PTSUNNY   79  66  64 W9        30.03F HX  81
SALEM*         PTSUNNY   80  71  73 SW12      30.03F HX  83
METROPOLIS*    PTSUNNY   84  70  62 S8        30.06F HX  88
$$

ILZ067-068-072-073-078-083-087-091-201800-
SOUTHEAST ILLINOIS

CITY           SKY/WX    TMP DP  RH WIND       PRES   REMARKS
LAWRENCEVILLE  MOSUNNY   80  67  64 SW14      30.03F HX  82
FLORA*         MOSUNNY   81  67  61 W9        30.03F HX  83
FAIRFIELD*     MOSUNNY  N/A N/A N/A SW12G17   30.03F
HARRISBURG*    MOSUNNY   82  67  62 SW12G17   30.06F HX  84
ROBINSON*      PTSUNNY   80  68  66 SW13G21   30.03F HX  83
CARMI*         MOSUNNY   84  70  61 SW12      30.04F HX  88
$$

ABBREVIATIONS USED IN REMARKS
   TC - TEMPERATURE IN CELSIUS
  WCI - WIND CHILL INDEX
   HX - HEAT INDEX
  VSB - VISIBILITY
$$




USA.gov is the U.S. government's official web portal to all federal, state and local government web resources and services.